Weather Roundup
Issued by NWS Chicago, IL

Home | Current Version | Previous Version | Graphics & Text | Print | Product List | Glossary On
Versions: 1 2 3 4 5 6 7 8 9 10 11 12 13 14 15 16 17 18 19 20 21 22 23 24 25 26 27 28 29 30 31 32 33 34 35 36 37 38 39 40 41 42 43 44 45 46 47 48 49 50
000
NZUS59 KLOT 032102
HRRLOT

CHICAGO AREA WEATHER ROUNDUP
NATIONAL WEATHER SERVICE CHICAGO/ROMEOVILLE IL
400 PM CDT WED JUN 03 2015

NOTE: "FAIR" INDICATES FEW OR NO CLOUDS BELOW 12,000 FEET WITH NO
SIGNIFICANT WEATHER AND/OR OBSTRUCTIONS TO VISIBILITY.

* THESE STATIONS ARE NOT UNDER NWS QUALITY CONTROL. THEY ALSO MAY NOT
  REPORT WEATHER SUCH AS PRECIPITATION OR FOG.

ILZ005-006-012>014-019>023-032200-
NORTHEAST ILLINOIS

CITY           SKY/WX    TMP DP  RH WIND       PRES   REMARKS
OHARE          PTSUNNY   75  55  49 S10       29.99F
MIDWAY         PTSUNNY   78  52  40 SE10      29.99F
AURORA         PTSUNNY   78  57  48 SE12      30.00S
LANSING*       SUNNY     75  51  42 S7        30.01F
WAUKEGAN       MOSUNNY   67  52  58 SE13      30.01F
DUPAGE AIRPORT MOSUNNY   76  56  49 S9        29.99S
WHEELING       MOSUNNY   75  53  46 E10       30.01S
NORTHERLY IS     N/A     62  54  74 E7          N/A
$$

WIZ051-052-058>065-066-070>072-032200-
SOUTHEAST WISCONSIN

CITY           SKY/WX    TMP DP  RH WIND       PRES   REMARKS
MILWAUKEE      PTSUNNY   65  50  58 SE14      30.01F
KENOSHA*       MOSUNNY   71  54  54 SE10      30.01F
RACINE*        MOSUNNY   67  51  56 SE12      30.03F
$$

INZ001>003-010>013-019-020-032200-
NORTHWEST INDIANA

CITY           SKY/WX    TMP DP  RH WIND       PRES   REMARKS
GARY*          PTSUNNY   73  55  53 NE7       30.02F
MICHIGAN CITY* NOT AVBL
RENSSELAER*    NOT AVBL
$$

LMZ740>746-032200-
SOUTHERN LAKE MICHIGAN

STATION/POSITION TIME  SKY/WX   TEMP WIND        PRES    VSBY
                                AIR  DIR/SP/G
                 (UTC)          (F)  (DEG/KT/KT) (MB)    (MI)
HARRISON CRIB    2000            58   80/ 16/ 17   N/A
BURNHAM HARBOR   2100            61   80/ 10/ 10   N/A
CALUMET HARBOR   2000            60   50/  8/ 10   N/A
BURNS HARBOR     2000                 60/  6/  8 1017.6S
MICHIGAN CITY    2000            60   10/  6/  8   N/A
$$

ABBREVIATIONS USED IN REMARKS
   TC - TEMPERATURE IN CELSIUS
  WCI - WIND CHILL INDEX
   HX - HEAT INDEX
  VSB - VISIBILITY
$$



USA.gov is the U.S. government's official web portal to all federal, state and local government web resources and services.